Location: La Chapelle
(48.3135°N, 1.3085°W)
Time: 23:37:27
(UTC+00:00)

USA 308 - Pass Details

Date: 03 March 2021
Orbit: 568 x 576 km, 54.0° (Epoch: 13 April)

Event Time Altitude Azimuth Distance (km) Brightness Sun altitude
Rises 18:24:55 0° 266° (W) 2,775 9.3 -6.2°
Reaches altitude 10° 18:27:15 10° 273° (W) 1,877 7.3 -6.6°
Maximum altitude 18:31:21 45° 347° (NNW) 791 3.7 -7.2°
Drops below altitude 10° 18:35:27 10° 60° (ENE) 1,876 5.0 -7.9°
Enters shadow 18:35:58 - 62° (ENE) 2,070 5.2 -8.0°
